Miscellaneous Local Product
Issued by NWS North Platte, NE

Home | Current Version | Previous Version | Graphics & Text | Print | Product List | Glossary On
Versions: 1 2 3 4 5 6 7 8 9 10 11 12 13 14 15 16 17 18 19 20 21 22 23 24 25 26 27 28 29 30 31 32 33 34 35 36 37 38 39 40 41 42 43 44 45 46 47 48 49 50
000
AXUS43 KLBF 241510
MISLBF


WESTERN AND NORTH CENTRAL NEBRASKA HOURLY WEATHER ROUNDUP
NATIONAL WEATHER SERVICE NORTH PLATTE NE
1000 AM CDT FRI OCT 24 2014

***STATIONS NOT REPORTING VARIABLES SUCH AS SKY/WEATHER OR
PRESSURE ARE PROVIDED BY THE NEBRASKA DEPARTMENT OF
ROADS...RAWS...AND APRS NETWORKS...AND ARE NOT UNDER
NATIONAL WEATHER SERVICE QUALITY CONTROL***

...OBSERVATIONS IN AND NEAR THE EASTERN PANHANDLE OF NEBRASKA...

CITY           SKY/WX    TMP DP  RH WIND       PRES   REMARKS
PINE RIDGE     PTSUNNY   58  37  45 W5        30.01R
CHADRON        PTSUNNY   54  37  52 SW9       30.02R
ALLIANCE       CLOUDY    53  38  56 W13       30.05R
SIDNEY         CLOUDY    58  39  49 NW6       30.10R
WHITECLAY        N/A     62  31  30 W12         N/A
RUSHVILLE        N/A     56  35  45 NW15        N/A
LISCO            N/A     45  38  75 W7          N/A
BIG SPRINGS      N/A     48  40  75 SW3         N/A
LEWELLEN         N/A     45  40  83 CALM        N/A
$$

...OBSERVATIONS IN NORTH CENTRAL NEBRASKA...

CITY           SKY/WX    TMP DP  RH WIND       PRES   REMARKS
VALENTINE      CLOUDY    48  40  73 SW6       29.96R
THEDFORD       CLOUDY    55  40  56 W8        29.99R
AINSWORTH      CLOUDY    52  39  63 W5        29.97R
O`NEILL        CLOUDY    53  47  77 W3        29.94R
ORD            CLOUDY    49  47  93 NW6       29.95R
BROKEN BOW     CLOUDY    58  44  60 W7        29.96R
BROWNLEE         N/A     57  36  44 W7          N/A
SPRINGVIEW       N/A     42  38  87 CALM        N/A
BREWSTER         N/A     47  43  88 CALM        N/A
ROSE             N/A     53  44  70 W3          N/A
NEWPORT          N/A     49  44  80 W5          N/A
SARGENT          N/A     45  44  98 CALM        N/A
COMSTOCK         N/A     55  50  82 W3          N/A
CHAMBERS         N/A     52  47  84 CALM        N/A
EWING            N/A     51  50  96 CALM        N/A
$$

...OBSERVATIONS IN SOUTHWEST NEBRASKA AND FAR NORTHEAST COLORADO...

CITY           SKY/WX    TMP DP  RH WIND       PRES   REMARKS
WRAY           FAIR      60  37  42 W10       30.09R
HOLYOKE        FAIR      63  37  39 W9        30.07
IMPERIAL       PTSUNNY   57  40  52 CALM      30.06R
OGALLALA       CLOUDY    54  41  61 W3        30.05R
NORTH PLATTE   CLOUDY    47  43  86 W5        30.02R
MCCOOK         PTSUNNY   55  45  68 W10       30.02R
LEXINGTON      CLOUDY    53  50  89 NW5       29.99S
PAXTON           N/A     45  40  82 CALM        N/A
SUTHERLAND       N/A     44  37  74 W6          N/A
BRADY            N/A     46  41  82 CALM        N/A
GOTHENBURG       N/A     47  40  76 NW3         N/A
CALLAWAY         N/A     51  43  75 W6          N/A
$$

...SOME WEATHER OBSERVATIONS FROM AROUND THE REGION...

CITY           SKY/WX    TMP DP  RH WIND       PRES   REMARKS
DENVER         CLOUDY    60  26  27 SW9       30.19R
LARAMIE        PTSUNNY   54  26  34 SW18G26   30.27R
CHEYENNE       CLOUDY    58  28  32 W8        30.22R
SCOTTSBLUFF    CLOUDY    55  38  52 NW8       30.08R
RAPID CITY     CLOUDY    59  33  37 NW13      29.98R
PIERRE         PTSUNNY   47  36  65 SW5       29.91R
WINNER           N/A    N/A N/A N/A MISG        N/A
SIOUX FALLS    CLOUDY    53  49  86 W3        29.89R
OMAHA          CLOUDY    62  58  86 S8        29.94R FOG
GRAND ISLAND   CLOUDY    58  53  84 W9        29.95R HAZE
KANSAS CITY    CLOUDY    59  58  96 S13       30.04S FOG
WICHITA        PTSUNNY   62  58  86 S12       30.07S FOG
HAYS           CLOUDY    57  52  82 SW6       30.04R
LIBERAL        SUNNY     59  52  77 W3        30.13R
GOODLAND       SUNNY     62  44  51 W8        30.09R
$$



USA.gov is the U.S. government's official web portal to all federal, state and local government web resources and services.